{"data":{"norad_id":59617,"intl_designator":"2024-080S","name":"STARLINK-31769","alt_names":[],"object_type":"PAYLOAD","status":"ACTIVE","operator":null,"country":"US","launch_date":"2024-04-28","launch_site_code":"AFETR","launch_vehicle":null,"mission":null,"orbit_class":"UNKNOWN","rcs_meters":null,"size_class":null,"mass_kg":null,"dimensions":null,"purposes":["comms"],"wikipedia_slug":null,"has_3d_model":false,"image_url":null,"decayed_at":null,"tle_current":{"epoch":"2026-05-24T21:31:20.902944Z","epoch_age_seconds":90717,"freshness":"FRESH","line1":"1 59617U 24080S   26144.89676971  .00001957  00000+0  80634-4 0  9998","line2":"2 59617  43.0039 327.8662 0001425 272.8983  87.1706 15.27581756116187","mean_motion":15.27581756,"eccentricity":0.0001425,"inclination_deg":43.0039,"raan_deg":327.8662,"arg_perigee_deg":272.8983,"mean_anomaly_deg":87.1706,"bstar":8.0634e-5,"rev_number":11618,"period_min":94.266640351261,"perigee_km":482.06611967956,"apogee_km":484.02155621838,"semimajor_km":6861.180837949,"source":"CELESTRAK","updated_at":"2026-05-25T13:38:19.011007Z"}}}